Home   Weather   Tarn Taran Sahib   Past weeks

Flag for India Past Weather in Tarn Taran Sahib, Punjab, India — Yesterday and Last 2 Weeks

Now
81 °F

Fog.


Feels Like: 89 °F
Forecast: 77 / 99 °F
Wind: 2 mph from North

Location: Amritsar Airport

Current Time: Sep 27, 2016 at 9:18:03 AM

Latest Report: Sep 27, 2016 at 8:30 AM


Visibility: 1 mi

Pressure: 29.80 "Hg

Humidity: 100%

Dew Point: 81 °F

Location of Tarn Taran SahibLocation

Past Weather in Tarn Taran Sahib — Graph

°F

Tarn Taran Sahib Temperature Yesterday

Maximum temperature yesterday: 88 °F (at 5:30 PM)
Minimum temperature yesterday: 79 °F (at 12:30 AM)
Average temperature yesterday: 81 °F

High & Low Weather Summary for the Past Weeks

 TemperatureHumidityPressure
High95 °F (Sep 17, 1:30 PM)100% (Sep 12, 7:30 AM)29.92 "Hg (Sep 12, 7:30 AM)
Low70 °F (Sep 27, 8:00 AM)56% (Sep 17, 12:00 PM)29.59 "Hg (Sep 20, 5:00 PM)
Average84 °F87%29.72 "Hg
* Reported Sep 12 7:30 AM — Sep 27 8:00 AM, Tarn Taran Sahib, Weather by CustomWeather, © 2016

Note: Actual official high and low records may vary slightly from our data, if they occured in-between our weather recording intervals... More about our weather records

Advertising

Tarn Taran Sahib Weather History for the Previous 24 Hours

Scroll right to see more
 ConditionsComfort  
Time TempWeatherWind HumidityBarometerVisibility
8:00 AM
Tue, Sep 27
70 °FFog.No wind100%29.80 "Hg1 mi
7:30 AM79 °FFog.No wind100%29.80 "Hg1 mi
7:00 AM77 °FFog.No wind100%29.77 "Hg1 mi
6:30 AM77 °FFog.No wind100%29.77 "Hg1 mi
6:00 AM77 °FFog.No wind100%29.77 "Hg1 mi
5:30 AM77 °FFog.No wind100%29.77 "Hg1 mi
5:00 AM79 °FFog.No wind100%29.74 "Hg1 mi
4:30 AM79 °FFog.No wind100%29.74 "Hg1 mi
4:00 AM79 °FFog.No wind100%29.74 "Hg1 mi
3:30 AM77 °FFog.No wind100%29.74 "Hg1 mi
3:00 AM77 °FFog.No wind100%29.74 "Hg1 mi
2:30 AM79 °FFog.No wind100%29.74 "Hg1 mi
1:30 AM79 °FFog.No wind100%29.74 "Hg1 mi
1:00 AM81 °FFog.No wind100%29.74 "Hg1 mi
12:30 AM79 °FFog.No wind100%29.74 "Hg1 mi
11:30 PM
Mon, Sep 26
81 °FFog.No wind100%29.74 "Hg1 mi
11:00 PM81 °FFog.No wind100%29.74 "Hg1 mi
10:30 PM81 °FFog.No wind100%29.74 "Hg1 mi
10:00 PM81 °FFog.No wind100%29.74 "Hg1 mi
9:30 PM81 °FFog.No wind100%29.74 "Hg1 mi
9:00 PM81 °FFog.No wind100%29.74 "Hg1 mi
8:30 PM82 °FFog.No wind100%29.74 "Hg1 mi
6:30 PM86 °FFog.No wind84%29.71 "Hg1 mi
5:30 PM88 °FBroken clouds.No wind75%29.71 "Hg1 mi
Weather by CustomWeather, © 2016

See weather overviewHow to use our weather pages